[[{"header":{"parameterUnit":"m.s-1","parameterCategory":1,"la1":30.2991,"la2":30.254,"lo1":-89.0895,"lo2":-89.0444,"dy":0.0017,"dx":0.0017,"nx":28,"ny":28,"refTime":"2023-03-19T21:00:00:Z","depth":0,"parameterNumber":2,"parameterNumberName":"U-component_of_WINDS"},"data":[0,0,0,0,0,0,0,0,0,0,0,0,0,0,0,0,0,0,0,0,0,0,0,0,0,0,0,0,0,0,0,0,0,0,0,0,0,0,0,0,0,0,0,0,0,0,0,0,0,0,0,0,0,0,0,0,0,0,-5.9092,-5.9093,0,-5.9171,-5.9172,-5.9173,-5.9059,-5.9055,-5.9051,-5.9047,-5.9125,-5.913,-5.9136,0,0,0,0,0,0,0,0,0,0,0,0,0,-5.8837,-5.8843,-5.9092,-5.9093,-5.9094,-5.9171,-5.9172,-5.9173,-5.906,-5.9055,-5.905,-5.9045,-5.9123,-5.913,-5.9136,0,0,0,0,0,0,0,0,0,0,0,0,0,-5.8935,-5.8844,-5.9092,-5.9047,-5.9043,-5.9171,-5.9172,-5.9173,-5.9061,-5.9055,-5.9049,-5.9043,-5.912,-5.9129,-5.9137,-5.9312,0,0,-5.9164,-5.9168,0,0,0,0,0,0,0,0,-5.893,-5.8945,-5.9052,-5.905,-5.9047,-5.9099,-5.9111,-5.922,-5.9062,-5.9054,-5.9047,-5.904,-5.9121,-5.9129,-5.9157,-5.9315,-5.9319,-5.9165,-5.917,-5.9174,-5.9176,0,0,0,0,0,0,0,-5.8923,-5.8941,-5.9123,-5.9054,-5.9051,-5.9021,-5.9028,-5.9131,-5.912,-5.9054,-5.9046,-5.9057,-5.9118,-5.9149,-5.9158,-5.932,-5.9165,-5.9172,-5.9178,-5.9181,-5.9621,-5.9627,0,0,0,0,0,0,-5.8923,-5.8936,-5.9121,-5.9125,-5.8972,-5.903,-5.9038,-5.9088,-5.9119,-5.9118,-5.9062,-5.9052,-5.9137,-5.9148,-5.916,-5.9363,-5.9174,-5.9182,-5.9187,-5.9615,-5.9623,-5.963,0,0,0,0,0,0,-5.8918,-5.894,-5.9117,-5.9029,-5.9049,-5.9041,-5.9098,-5.9093,-5.9124,-5.9125,-5.9122,-5.9096,-5.9133,-5.9148,-5.9274,-5.9364,-5.9186,-5.9194,-5.9607,-5.9617,-5.9626,-5.9772,0,0,0,0,0,0,-5.8911,-5.8939,-5.9006,-5.9031,-5.9054,-5.9232,-5.9104,-5.9099,-5.9139,-5.9126,-5.9156,-5.9155,-5.9129,-5.9262,-5.9283,-5.9373,-5.9201,-5.9599,-5.9612,-5.9623,-5.9759,-5.9785,-5.9808,0,0,0,0,0,-5.8902,-5.9044,-5.901,-5.9033,-5.9138,-5.9237,-5.925,-5.9219,-5.9147,-5.9213,-5.9214,-5.9154,-5.9352,-5.9276,-5.9299,-5.9392,-5.9593,-5.9608,-5.9622,-5.9748,-5.978,-5.9807,0,0,0,0,0,0,-5.9029,-5.9046,-5.9009,-5.9164,-5.92,-5.9218,-5.93,-5.9255,-5.9311,-5.9296,-5.9254,-5.9261,-5.9396,-5.9407,-5.9322,-5.9561,-5.946,-5.948,-5.9548,-5.9578,-5.9603,-5.9595,-5.9208,0,0,0,0,0,-5.9075,-5.9156,-5.9166,-5.9301,-5.9322,-5.9309,-5.9351,-5.9323,-5.9359,-5.9373,-5.9383,-5.9418,-5.9487,-5.9534,-5.9599,-5.9761,-5.9764,-5.9837,-5.9861,-5.9881,-5.9898,-5.998,-6.0012,-5.9677,-5.9677,-5.9677,0,0,-5.9171,-5.919,-5.9243,-5.9327,-5.9352,-5.9434,-5.9322,-5.9414,-5.9474,-5.9386,-5.9505,-5.9514,-5.9551,-5.9695,-5.9759,-5.9708,-5.9991,-5.99,-5.9916,-5.9921,-5.9999,-6.003,-6.0058,-5.9687,-5.9685,-5.9684,0,0,-5.9386,-5.9411,-5.9524,-5.9552,-5.9591,-5.9581,-5.9609,-5.9634,-5.9637,-5.9756,-5.9691,-5.9761,-5.9884,-5.9911,-5.9941,-6.0167,-6.0112,-6.019,-6.0316,-6.0397,-6.0424,-6.0447,-6.0523,-6.0552,-6.0207,-6.0207,-6.0207,0,-5.9499,-5.9621,-5.9588,-5.9685,-5.9722,-5.9648,-5.9761,-5.9789,-5.9848,-5.9874,-5.9818,-5.9968,-5.9988,-6.0135,-6.019,-6.0219,-6.0246,-6.0184,-6.0423,-6.0446,-6.0467,-6.0539,-6.0568,-6.0216,-6.0215,-6.0214,-6.0213,0,-5.9756,-5.9843,-5.9929,-5.9988,-6.0035,-6.014,-6.0121,-6.0173,-6.0142,-6.0138,-6.0259,-6.028,-6.0346,-6.038,-6.0351,-6.0524,-6.049,-6.043,-6.0327,-6.0508,-6.0575,-6.0603,-6.0228,-6.0225,-6.0223,-6.022,0,0,-6.0051,-6.009,-6.0122,-6.0146,-6.0185,-6.0249,-6.035,-6.0416,-6.0459,-6.0503,-6.0583,-6.0689,-6.0632,-6.0666,-6.064,-6.0712,-6.0885,-6.0641,-6.0641,-6.0682,-6.1071,-6.1114,-6.1147,-6.0851,-6.0856,-6.086,-6.1067,0,-6.0262,-6.0436,-6.0409,-6.0576,-6.0653,-6.0585,-6.0672,-6.0704,-6.0703,-6.0767,-6.0765,-6.0839,-6.0761,-6.078,-6.0849,-6.0849,-6.0961,-6.0834,-6.0922,-6.0925,-6.091,-6.1182,-6.1228,-6.1422,-6.1093,-6.1098,-6.1101,0,-6.0532,-6.0584,-6.076,-6.0784,-6.0815,-6.0894,-6.095,-6.1014,-6.1048,-6.1042,-6.1081,-6.104,-6.1138,-6.1038,-6.117,-6.1084,-6.1119,-6.1124,-6.1131,-6.1134,-6.1021,-6.1189,-6.1484,-6.1511,-6.1143,-6.114,-6.1137,0,-6.0723,-6.0839,-6.0957,-6.0981,-6.1014,-6.107,-6.1086,-6.1114,-6.1155,-6.1205,-6.123,-6.1291,-6.1323,-6.137,-6.1346,-6.1276,-6.1482,-6.138,-6.1477,-6.1477,-6.1519,-6.1516,-6.182,-6.155,-6.155,-6.1549,-6.1549,0,-6.0959,-6.1068,-6.1044,-6.1116,-6.1235,-6.1203,-6.1321,-6.1329,-6.1355,-6.1426,-6.1372,-6.1439,-6.1407,-6.1472,-6.1455,-6.1564,-6.1581,-6.1576,-6.1569,-6.1579,-6.1579,-6.1597,-6.1581,-6.1557,-6.1555,-6.1554,-6.1552,0,-6.1192,-6.1181,-6.1304,-6.1325,-6.1333,-6.1419,-6.1436,-6.1503,-6.1499,-6.1589,-6.1609,-6.1601,-6.1675,-6.1657,-6.1738,-6.1726,-6.1864,-6.1842,-6.1852,-6.1845,-6.1941,-6.193,-6.2263,-6.2303,-6.2012,-6.2015,-6.2018,0,-6.1341,-6.1423,-6.1452,-6.1496,-6.1517,-6.1589,-6.163,-6.1602,-6.1646,-6.1691,-6.1752,-6.1821,-6.1874,-6.1995,-6.1995,-6.2056,-6.2033,-6.2145,-6.2041,-6.2047,-6.2029,-6.2023,-6.2029,-6.2164,-6.2168,-6.2171,-6.2173,0,-6.1605,-6.1595,-6.1657,-6.1717,-6.1768,-6.1813,-6.1854,-6.1893,-6.1867,-6.192,-6.1995,-6.2037,-6.2119,-6.2187,-6.2243,-6.2257,-6.221,-6.2206,-6.2231,-6.2238,-6.2239,-6.2235,-6.1903,-6.2198,-6.2195,-6.2193,-6.2192,-6.2191,-6.1797,-6.1865,-6.1896,-6.1966,-6.1994,-6.2033,-6.2096,-6.2099,-6.2162,-6.2226,-6.2206,-6.2291,-6.2321,-6.2392,-6.2413,-6.2478,-6.2435,-6.2472,-6.248,-6.2489,-6.2498,-6.2233,-6.2488,-6.2488,-6.2487,-6.2486,-6.2486,0,-6.2054,-6.2071,-6.2136,-6.2194,-6.2249,-6.2203,-6.2245,-6.2292,-6.2368,-6.2401,-6.2455,-6.2539,-6.2605,-6.2612,-6.2673,-6.2723,-6.2703,-6.274,-6.2733,-6.2737,-6.2535,-6.2506,-6.2755,-6.2755,-6.2755,-6.2755,-6.2755,-6.2755,-6.2194,-6.2306,-6.23,-6.2424,-6.244,-6.2523,-6.255,-6.2585,-6.2611,-6.2708,-6.2762,-6.2767,-6.2789,-6.2851,-6.2908,-6.2909,-6.2931,-6.2976,-6.2967,-6.2778,-6.2751,-6.2725,-6.2697,-6.2982,-6.2983,-6.3162,-6.3164,-6.3165]},{"header":{"parameterUnit":"m.s-1","parameterCategory":1,"la1":30.2991,"la2":30.254,"lo1":-89.0895,"lo2":-89.0444,"dy":0.0017,"dx":0.0017,"nx":28,"ny":28,"refTime":"2023-03-19T21:00:00:Z","depth":0,"parameterNumber":3,"parameterNumberName":"V-component_of_WINDS"},"data":[0,0,0,0,0,0,0,0,0,0,0,0,0,0,0,0,0,0,0,0,0,0,0,0,0,0,0,0,0,0,0,0,0,0,0,0,0,0,0,0,0,0,0,0,0,0,0,0,0,0,0,0,0,0,0,0,0,0,-0.7317,-0.7318,0,-0.7363,-0.7364,-0.7364,-0.739,-0.739,-0.739,-0.739,-0.7438,-0.7439,-0.7441,0,0,0,0,0,0,0,0,0,0,0,0,0,-0.7251,-0.7252,-0.7317,-0.7318,-0.7318,-0.7363,-0.7364,-0.7364,-0.739,-0.739,-0.739,-0.739,-0.7438,-0.7439,-0.7441,0,0,0,0,0,0,0,0,0,0,0,0,0,-0.7287,-0.7252,-0.7317,-0.7336,-0.7339,-0.7363,-0.7364,-0.7365,-0.739,-0.739,-0.739,-0.739,-0.7437,-0.7439,-0.7441,-0.745,0,0,-0.7446,-0.7447,0,0,0,0,0,0,0,0,-0.7284,-0.7289,-0.7333,-0.7335,-0.7338,-0.7371,-0.7358,-0.7393,-0.739,-0.737,-0.739,-0.739,-0.7416,-0.7419,-0.7428,-0.7452,-0.7455,-0.7447,-0.7448,-0.7449,-0.7449,0,0,0,0,0,0,0,-0.7282,-0.7287,-0.7336,-0.7334,-0.7336,-0.7343,-0.7348,-0.7365,-0.7392,-0.7372,-0.7374,-0.7379,-0.7417,-0.7426,-0.7429,-0.7455,-0.7447,-0.7448,-0.7449,-0.745,-0.7487,-0.7487,0,0,0,0,0,0,-0.7276,-0.7285,-0.7334,-0.7337,-0.7311,-0.7344,-0.7349,-0.736,-0.7392,-0.7397,-0.7379,-0.738,-0.7423,-0.7427,-0.7431,-0.7442,-0.7449,-0.745,-0.7451,-0.7487,-0.7487,-0.7487,0,0,0,0,0,0,-0.7275,-0.7281,-0.7332,-0.7311,-0.7318,-0.7345,-0.7356,-0.7361,-0.737,-0.7397,-0.7402,-0.7383,-0.7423,-0.7428,-0.7445,-0.7445,-0.7451,-0.7453,-0.7487,-0.7487,-0.7487,-0.7466,0,0,0,0,0,0,-0.7273,-0.728,-0.7284,-0.7311,-0.7319,-0.7345,-0.7357,-0.7362,-0.7373,-0.7375,-0.7402,-0.7407,-0.7424,-0.7442,-0.7446,-0.7447,-0.7454,-0.7488,-0.7487,-0.7487,-0.7467,-0.7465,-0.7464,0,0,0,0,0,-0.727,-0.7277,-0.7284,-0.729,-0.7325,-0.7345,-0.735,-0.7369,-0.7373,-0.7377,-0.7394,-0.7406,-0.7444,-0.7443,-0.7449,-0.745,-0.7488,-0.7487,-0.7487,-0.7468,-0.7466,-0.7464,0,0,0,0,0,0,-0.725,-0.7281,-0.7289,-0.7305,-0.7322,-0.735,-0.7356,-0.7366,-0.7383,-0.7384,-0.7407,-0.7413,-0.7426,-0.744,-0.7439,-0.7459,-0.7467,-0.7468,-0.745,-0.7448,-0.7447,-0.7443,-0.7456,0,0,0,0,0,-0.7247,-0.7261,-0.7288,-0.7299,-0.7307,-0.7329,-0.7339,-0.7351,-0.737,-0.7378,-0.7396,-0.7414,-0.743,-0.744,-0.7456,-0.7469,-0.7475,-0.7472,-0.7471,-0.7469,-0.747,-0.7476,-0.7475,-0.7486,-0.7486,-0.7486,0,0,-0.7242,-0.7261,-0.7268,-0.7295,-0.731,-0.7323,-0.7336,-0.735,-0.7359,-0.738,-0.7396,-0.741,-0.7431,-0.7445,-0.7453,-0.7457,-0.7468,-0.7469,-0.7468,-0.7469,-0.7475,-0.7474,-0.7473,-0.7486,-0.7486,-0.7486,0,0,-0.724,-0.7255,-0.7266,-0.7279,-0.7301,-0.7316,-0.7318,-0.7343,-0.7353,-0.7369,-0.7384,-0.7396,-0.7423,-0.7437,-0.7448,-0.7447,-0.7458,-0.7451,-0.7443,-0.7449,-0.7448,-0.7447,-0.7446,-0.7445,-0.7452,-0.7452,-0.7452,0,-0.7231,-0.7251,-0.727,-0.7282,-0.7293,-0.7311,-0.7321,-0.7333,-0.7359,-0.7366,-0.7371,-0.7403,-0.7419,-0.7435,-0.7435,-0.7443,-0.7446,-0.7449,-0.7446,-0.7446,-0.7445,-0.7444,-0.7444,-0.7451,-0.7451,-0.7451,-0.7451,0,-0.7238,-0.7252,-0.7258,-0.7281,-0.7292,-0.7303,-0.7323,-0.7332,-0.7342,-0.7356,-0.7371,-0.739,-0.741,-0.7415,-0.7426,-0.7432,-0.7434,-0.7442,-0.745,-0.7443,-0.7442,-0.7442,-0.7449,-0.7449,-0.745,-0.745,0,0,-0.7226,-0.7257,-0.7259,-0.7269,-0.7292,-0.7303,-0.7314,-0.7332,-0.7339,-0.7356,-0.7365,-0.7386,-0.7393,-0.7405,-0.7417,-0.7422,-0.7418,-0.743,-0.743,-0.7426,-0.7424,-0.7418,-0.7417,-0.7426,-0.7426,-0.7426,-0.7422,0,-0.7226,-0.7247,-0.7262,-0.7277,-0.7289,-0.7305,-0.7314,-0.7329,-0.7342,-0.7354,-0.7368,-0.7381,-0.739,-0.7397,-0.7402,-0.7418,-0.7418,-0.7418,-0.7434,-0.7434,-0.7428,-0.7417,-0.7411,-0.7407,-0.7422,-0.7422,-0.7422,0,-0.723,-0.7244,-0.7259,-0.7279,-0.7285,-0.7293,-0.731,-0.7321,-0.7338,-0.7346,-0.7358,-0.7371,-0.7382,-0.7388,-0.7404,-0.7403,-0.7411,-0.7419,-0.7419,-0.7421,-0.7428,-0.7418,-0.7406,-0.7405,-0.7422,-0.7422,-0.7422,0,-0.7218,-0.7241,-0.7253,-0.7261,-0.7285,-0.729,-0.73,-0.7317,-0.7326,-0.734,-0.7346,-0.7362,-0.737,-0.7382,-0.7398,-0.7401,-0.7411,-0.7419,-0.7418,-0.7417,-0.742,-0.7419,-0.7408,-0.7425,-0.7425,-0.7425,-0.7425,0,-0.7216,-0.7225,-0.7247,-0.7254,-0.7264,-0.7281,-0.729,-0.7301,-0.7316,-0.7325,-0.734,-0.7348,-0.7369,-0.7379,-0.7392,-0.7402,-0.7406,-0.7413,-0.7416,-0.7412,-0.741,-0.7417,-0.7417,-0.7425,-0.7425,-0.7425,-0.7425,0,-0.7205,-0.7221,-0.7234,-0.7255,-0.726,-0.7266,-0.7284,-0.7291,-0.7303,-0.7314,-0.7318,-0.7337,-0.735,-0.7367,-0.7386,-0.7394,-0.7402,-0.7408,-0.7396,-0.7398,-0.7396,-0.7395,-0.7388,-0.7387,-0.7405,-0.7404,-0.7404,0,-0.7203,-0.721,-0.723,-0.7237,-0.7247,-0.7258,-0.7266,-0.7283,-0.7291,-0.7309,-0.7313,-0.7327,-0.7339,-0.7358,-0.7374,-0.7388,-0.7393,-0.739,-0.7396,-0.739,-0.7392,-0.7392,-0.7392,-0.7388,-0.7388,-0.7388,-0.7388,0,-0.7198,-0.7204,-0.7216,-0.7229,-0.7238,-0.725,-0.7262,-0.7267,-0.7286,-0.7294,-0.7307,-0.7316,-0.7333,-0.7346,-0.7361,-0.7372,-0.7383,-0.7385,-0.7386,-0.7381,-0.7374,-0.7376,-0.7392,-0.7386,-0.7386,-0.7386,-0.7386,-0.7386,-0.7191,-0.7196,-0.7211,-0.7223,-0.7233,-0.7243,-0.725,-0.7262,-0.7273,-0.7288,-0.7297,-0.7309,-0.7324,-0.7345,-0.7354,-0.7364,-0.7368,-0.7369,-0.7369,-0.7369,-0.7367,-0.7372,-0.7367,-0.7367,-0.7367,-0.7367,-0.7367,0,-0.7185,-0.7194,-0.7205,-0.7221,-0.7229,-0.7237,-0.725,-0.7257,-0.7267,-0.7279,-0.729,-0.7303,-0.7315,-0.7331,-0.7344,-0.7348,-0.7353,-0.7351,-0.7351,-0.7352,-0.7363,-0.7361,-0.7346,-0.7346,-0.7346,-0.7346,-0.7346,-0.7346,-0.7183,-0.7192,-0.72,-0.7214,-0.7224,-0.7235,-0.7242,-0.7251,-0.726,-0.7274,-0.7284,-0.7294,-0.7307,-0.732,-0.7331,-0.7335,-0.7339,-0.7335,-0.7341,-0.735,-0.7352,-0.7354,-0.7352,-0.7336,-0.7336,-0.733,-0.733,-0.733]}]]